This is the latest recevied weather packets stored in our database for station/object KC7WRB. If no packets are shown the sender has not sent any weather packets the latest 10 day(s).
| Time | Temp. | Humidity | Pressure | Rain* | Wind** | Luminosity | Snow |
|---|---|---|---|---|---|---|---|
| 1777568056 | 15.56° C | 25% | 1019.5 hPa | 0 mm | - | 673 W/m² | - |
| 1777567752 | 15.56° C | 26% | 1019.4 hPa | 0 mm | - | 661 W/m² | - |
| 1777567448 | 15° C | 28% | 1019.8 hPa | 0 mm | - | 646 W/m² | - |
| 1777567146 | 15.56° C | 27% | 1019.8 hPa | 0 mm | - | 629 W/m² | - |
| 1777566844 | 15° C | 29% | 1019.8 hPa | 0 mm | - | 612 W/m² | - |
| 1777566542 | 15° C | 28% | 1019.9 hPa | 0 mm | - | 596 W/m² | - |
| 1777566239 | 14.44° C | 29% | 1019.9 hPa | 0 mm | - | 578 W/m² | - |
| 1777565936 | 13.89° C | 29% | 1019.9 hPa | 0 mm | - | 559 W/m² | - |
| 1777565631 | 14.44° C | 29% | 1019.8 hPa | 0 mm | - | 541 W/m² | - |
| 1777565328 | 13.89° C | 30% | 1019.9 hPa | 0 mm | - | 513 W/m² | - |
| 1777565024 | 14.44° C | 29% | 1020.1 hPa | 0 mm | - | 499 W/m² | - |
| 1777564720 | 14.44° C | 30% | 1020 hPa | 0 mm | - | 476 W/m² | - |
| 1777564415 | 13.33° C | 32% | 1020 hPa | 0 mm | - | 462 W/m² | - |
| 1777564111 | 12.78° C | 34% | 1020 hPa | 0 mm | - | 398 W/m² | - |
| 1777563807 | 12.78° C | 34% | 1020.1 hPa | 0 mm | - | 424 W/m² | - |
| 1777563504 | 13.33° C | 35% | 1020.1 hPa | 0 mm | - | 407 W/m² | - |
| 1777563203 | 12.22° C | 38% | 1020.1 hPa | 0 mm | - | 386 W/m² | - |
| 1777562900 | 11.11° C | 40% | 1020 hPa | 0 mm | - | 367 W/m² | - |
| 1777562596 | 10.56° C | 41% | 1020.1 hPa | 0 mm | - | 348 W/m² | - |
| 1777562295 | 10° C | 42% | 1020.1 hPa | 0 mm | - | 329 W/m² | - |
| 1777561992 | 10° C | 44% | 1020 hPa | 0 mm | - | 310 W/m² | - |
| 1777561689 | 9.44° C | 43% | 1020.1 hPa | 0 mm | - | 290 W/m² | - |
| 1777561384 | 8.89° C | 43% | 1020.2 hPa | 0 mm | - | 272 W/m² | - |
| 1777561080 | 8.33° C | 45% | 1020 hPa | 0 mm | - | 253 W/m² | - |
| 1777560775 | 7.78° C | 45% | 1020.2 hPa | 0 mm | - | 232 W/m² | - |
* Rain latest hour (hover to see other rain measurements)
** Current wind speed in m/s (hover to see current wind gust speed)